TIME,DELAY(SENSOR),PRES,OXYGEN,RAWTEMP,T(OPTODE),TCPHASE,FLUOR,BETA(BETA700),BETA(BETA412),BETA(BETA440),CDOM,C(CSC),ED(ED412.20),ED(ED444.00),ED(ED489.60),ED(ED554.30),LU(LU412.10),LU(LU443.90),LU(LU489.70),LU(LU554.70),COMP,TILTX,TILTY,CHECK
1367900617,5809,849.2000122070312000,31.5021305084228500,559.0507202148438000,4.5153121948242190,56.8362617492675800,55,100,100,77,82,15538,0,0,0,0,2147122614,2147766162,2147577316,2147568201,1263,3,13,59033
1367904213,5811,909.9199829101562000,34.5599212646484400,563.8969116210938000,4.3650631904602050,56.3879203796386700,55,100,100,77,82,15540,0,0,0,0,2147121718,2147765110,2147571556,2147566811,3329,2,13,59461
1367907813,5809,923.7899780273438000,33.6458206176757800,565.1875000000000000,4.3250141143798830,56.5474014282226560,55,97,100,78,82,15540,0,0,0,0,2147123675,2147769773,2147569234,2147568886,133,2,13,51181
1367911413,5812,943.7500000000000000,35.3365592956543000,568.2030029296875000,4.2313899993896480,56.3128585815429700,55,98,99,77,82,15540,0,0,0,0,2147121499,2147772562,2147572790,2147568356,3436,2,13,40659
1367915013,5808,950.9000244140625000,35.2593383789062500,568.4805297851562000,4.2227687835693360,56.3267402648925800,55,101,100,77,82,15538,0,0,0,0,2147124342,2147772205,2147568402,2147567917,330,3,13,29587
1367918613,5810,947.2600097656250000,35.9341201782226560,569.0299072265625000,4.2057042121887210,56.2281608581543000,55,98,98,78,81,15538,0,0,0,0,2147121654,2147766985,2147570166,2147565942,3507,2,13,20155
1367922213,5807,977.0900268554688000,38.9781608581543000,570.9099121093750000,4.1472840309143070,55.7784385681152340,54,98,101,77,81,15537,0,0,0,0,2147123904,2147775460,2147573888,2147563081,419,2,13,24873
1367925813,5811,979.0300292968750000,36.3942413330078100,571.0750122070312000,4.1421508789062500,56.1773605346679700,54,98,99,77,82,15537,0,0,0,0,2147122450,2147770276,2147572690,2147564425,96,2,13,49230
1367929413,5812,977.1500244140625000,35.5672111511230500,571.5131835937500000,4.1285290718078610,56.3063011169433600,55,97,100,79,81,15536,0,0,0,0,2147120310,2147770441,2147571785,2147567506,1351,2,13,60386
1367933013,5808,977.1900024414062000,40.2416496276855500,572.2697143554688000,4.1050071716308590,55.6009788513183600,55,101,101,78,81,15480,0,0,0,0,2147120795,2147767552,2147573888,2147566518,453,2,13,21204
1367936613,5808,977.1400146484375000,40.5102615356445300,572.4995117187500000,4.0978617668151855,55.5653915405273440,54,98,99,78,81,15537,0,0,0,0,2147123291,2147768832,2147573696,2147565266,343,2,13,12771
1367940213,5810,978.4899902343750000,37.2129096984863300,572.1326293945312000,4.1092681884765625,56.0594291687011700,54,98,99,80,82,15529,0,0,0,0,2147120667,2147771117,2147573568,2147565266,3517,2,13,55773
1367943813,5810,985.4500122070312000,37.7830810546875000,572.0233154296875000,4.1126708984375000,55.9680709838867200,55,97,100,78,81,15537,0,0,0,0,2147120530,2147765723,2147573714,2147567643,315,2,13,8601
1367947413,5809,991.0800170898438000,38.7308502197265600,571.0706176757812000,4.1422858238220215,55.8166999816894500,56,97,100,78,81,15532,0,0,0,0,2147121152,2147771273,2147571958,2147566912,3454,2,13,25054
1367951013,5811,988.6500244140625000,38.3283615112304700,570.7211303710938000,4.1531491279602050,55.8760910034179700,56,98,99,78,81,15517,0,0,0,0,2147121325,2147772955,2147575570,2147561938,3511,2,13,9014
1367954613,5809,999.3699951171875000,38.8835411071777340,569.5167846679688000,4.1905751228332520,55.7790107727050800,56,98,100,78,82,15534,0,0,0,0,2147122770,2147768621,2147571026,2147565577,662,2,13,63762
1367958213,5810,987.9799804687500000,39.0266494750976560,570.0662841796875000,4.1735000610351560,55.7648887634277340,54,97,100,77,82,15534,0,0,0,0,2147124342,2147769170,2147572525,2147563556,398,2,13,46328
1367961813,5809,991.5100097656250000,38.4906501770019500,570.8225708007812000,4.1499938964843750,55.8540306091308600,55,98,100,78,82,15534,0,0,0,0,2147124672,2147768045,2147568841,2147565275,137,2,13,4040
1367965413,5809,989.4500122070312000,38.3206901550293000,571.1328735351562000,4.1403498649597170,55.8778610229492200,53,98,99,77,80,15533,0,0,0,0,2147121124,2147764946,2147573257,2147565504,3337,2,13,45574
1367969013,5811,987.3300170898438000,38.7552108764648440,571.1234130859375000,4.1406478881835940,55.8157005310058600,55,97,100,77,80,15532,0,0,0,0,2147123968,2147771483,2147577289,2147566509,3566,2,13,4436
1367972613,5812,987.0000000000000000,38.1798400878906250,572.3107910156250000,4.1037287712097170,55.9124107360839840,54,97,99,78,82,15534,0,0,0,0,2147124214,2147771830,2147572818,2147565065,198,2,13,64501
1367976213,5809,988.5800170898438000,38.3100700378418000,571.9954833984375000,4.1135330200195310,55.8936195373535160,54,99,99,78,82,15531,0,0,0,0,2147121234,2147766336,2147570998,2147566582,56,2,13,28140
1367979813,5810,985.0300292968750000,37.7747917175293000,572.5007934570312000,4.0978198051452640,55.9809303283691400,55,96,100,78,81,15531,0,0,0,0,2147120128,2147777334,2147569673,2147565092,19,2,13,23498
1367983413,5807,985.1199951171875000,39.0856590270996100,573.3994140625000000,4.0698738098144530,55.7871589660644500,55,97,101,83,81,15524,0,0,0,0,2147122651,2147768374,2147570505,2147564864,2976,2,13,28768
1367987013,5810,988.9099731445312000,37.8479309082031250,574.0958251953125000,4.0482101440429690,55.9822616577148440,54,98,100,79,81,15523,0,0,0,0,2147124370,2147767177,2147573604,2147564461,85,2,13,47072
1367990613,5809,987.1799926757812000,39.8435897827148440,572.8527832031250000,4.0868740081787110,55.6710815429687500,55,98,100,79,82,15522,0,0,0,0,2147124324,2147769846,2147570925,2147565028,2467,2,13,50950
1367994213,5809,989.9099731445312000,39.3055992126464840,574.2926025390625000,4.0420880317687990,55.7666206359863300,55,97,100,78,81,15520,0,0,0,0,2147121581,2147767862,2147574235,2147566820,17,2,13,26842
1367997813,5811,989.4899902343750000,39.1464385986328100,573.7755737304688000,4.0581722259521480,55.7835197448730500,55,102,99,77,82,15521,0,0,0,0,2147119369,2147770322,2147576832,2147566546,4,2,13,57554
1368001413,5809,987.9600219726562000,40.2345008850097660,572.3037719726562000,4.1039447784423830,55.6019592285156250,55,99,101,76,81,15519,0,0,0,0,2147122304,2147769179,2147573284,2147567716,421,2,13,1860
1368005013,5807,995.6799926757812000,39.8317604064941400,571.0889282226562000,4.1417198181152340,55.6543693542480500,55,100,98,77,82,15517,0,0,0,0,2147123712,2147768905,2147573092,2147567899,144,3,13,32711
1368008613,5810,992.4899902343750000,39.6438102722168000,571.2487792968750000,4.1367468833923340,55.6841087341308600,55,99,98,77,82,15517,0,0,0,0,2147122112,2147771245,2147573504,2147565586,523,2,13,10273
1368012213,5810,990.5700073242188000,40.0293884277343750,571.7703857421875000,4.1205310821533200,55.6339416503906250,56,99,101,78,82,15519,0,0,0,0,2147121398,2147770651,2147568219,2147567698,461,2,13,25116
1368015813,5810,985.5399780273438000,40.5184707641601560,573.0001831054688000,4.0822892189025880,55.5721702575683600,55,98,99,78,81,15516,0,0,0,0,2147119213,2147775616,2147573705,2147565275,3271,2,13,34749
1368019413,5809,990.7199707031250000,38.6949005126953100,573.0811157226562000,4.0797748565673830,55.8427009582519500,54,97,100,77,81,15517,0,0,0,0,2147120384,2147768557,2147563254,2147564754,138,2,13,1623
1368023013,5812,991.4099731445312000,39.7494812011718750,572.3496704101562000,4.1025180816650390,55.6814689636230500,55,97,98,78,82,15515,0,0,0,0,2147125129,2147768347,2147570651,2147568576,3550,2,13,53705
1368026613,5809,996.7999877929688000,39.1226310729980500,572.0399169921875000,4.1121540069580080,55.7708091735839840,55,98,100,78,81,15517,0,0,0,0,2147123785,2147773385,2147570660,2147570514,3593,2,13,24990
1368030213,5810,995.1599731445312000,37.0833816528320300,571.2739257812500000,4.1359667778015140,56.0728111267089840,55,98,100,78,81,15517,0,0,0,0,2147120018,2147768320,2147571693,2147568411,3450,2,13,58469
1368033813,5808,985.0100097656250000,38.3103981018066400,572.1931762695312000,4.1073861122131350,55.8906898498535160,55,97,100,78,81,15515,0,0,0,0,2147120237,2147768557,2147568749,2147569618,3452,2,13,58511
1368037413,5810,994.3099975585938000,39.9398994445800800,573.0714111328125000,4.0800781250000000,55.6592292785644500,55,100,100,79,81,15514,0,0,0,0,2147117330,2147773696,2147572032,2147567387,492,2,13,26650
1368041013,5809,998.1400146484375000,38.7166595458984400,571.8909301757812000,4.1167869567871090,55.8305091857910160,55,98,99,77,83,15512,0,0,0,0,2147121526,2147770843,2147568429,2147566537,138,2,13,13887
1368044613,5808,1000.9799804687500000,38.7198104858398440,571.2235717773438000,4.1375308036804200,55.8243598937988300,55,98,101,78,82,15514,0,0,0,0,2147119122,2147771629,2147573558,2147565659,3564,2,13,14228
1368044756,5811,1000.5800170898438000,38.6273498535156250,571.0883178710938000,4.1417388916015625,55.8326110839843750,55,96,99,76,81,15511,0,0,0,0,2147119981,2147770560,2147576475,2147567378,12,2,13,50478
